M9XDX-WX Weather Reports


time (UTC)temp
C
wind
direction
speed
KPH
gust
KPH
rain 1hr
cm
rain 24hr
cm
rain mn
cm
humidity
%
barometer
mb
20260503010003 10 0 0.0 0.0 0.00 2.39 0.00 96 1009.0
20260503005220 10 281 0.0 1.6 0.00 2.39 0.00 96 1009.2
20260503004003 10 278 0.0 1.6 0.00 2.39 0.00 96 1009.3
20260503003003 10 278 0.0 1.6 0.00 2.39 0.00 96 1009.1
20260503002003 10 278 0.0 1.6 0.00 2.39 0.00 96 1009.2
20260503001219 10 278 0.0 1.6 0.00 2.39 0.00 96 1009.1
20260503000003 10 0 0.0 0.0 0.00 2.39 0.00 96 1009.4
20260502235003 11 278 0.0 1.6 0.00 2.39 0.00 96 1009.3
20260502234003 11 278 1.6 3.2 0.00 2.39 0.00 96 1009.6
20260502233003 11 277 1.6 4.8 0.00 2.39 0.00 95 1009.4
20260502232219 11 276 1.6 3.2 0.00 2.39 0.00 96 1009.3
20260502231003 11 260 0.0 3.2 0.00 2.39 0.00 95 1009.8
20260502230003 11 264 0.0 1.6 0.00 2.39 0.00 96 1009.6
20260502225003 11 267 0.0 3.2 0.00 2.39 2.39 95 1009.8
20260502224003 11 296 0.0 3.2 0.00 2.39 2.39 95 1009.6
20260502223003 11 350 0.0 1.6 0.00 2.39 2.39 95 1009.8
20260502222003 11 0 0.0 0.0 0.00 2.39 2.39 95 1009.6
20260502221003 11 351 0.0 1.6 0.00 2.39 2.39 95 1009.8
20260502220003 11 351 0.0 1.6 0.00 2.39 2.39 95 1009.9
20260502215003 11 351 0.0 1.6 0.00 2.39 2.39 95 1009.7
20260502214003 11 351 0.0 1.6 0.00 2.39 2.39 95 1009.6
20260502213003 11 351 0.0 1.6 0.00 2.39 2.39 95 1009.8
20260502212003 11 350 0.0 3.2 0.03 2.39 2.39 95 1009.7
20260502211003 11 351 0.0 1.6 0.03 2.39 2.39 95 1009.9
20260502210003 11 356 1.6 3.2 0.08 2.39 2.39 95 1010.1
20260502205003 11 354 1.6 4.8 0.10 2.39 2.39 95 1009.9
20260502204003 11 1 4.8 11.3 0.13 2.39 2.39 95 1010.2
20260502203003 11 352 4.8 11.3 0.13 2.39 2.39 95 1010.3
20260502202003 11 3 3.2 4.8 0.13 2.36 2.36 95 1010.2
20260502201003 11 284 1.6 4.8 0.15 2.36 2.36 95 1010.3
20260502200003 11 226 0.0 1.6 0.10 2.31 2.31 95 1010.2
20260502195003 11 200 1.6 3.2 0.13 2.29 2.29 95 1010.2
20260502194003 11 72 1.6 4.8 0.13 2.26 2.26 95 1010.3
20260502193003 11 355 4.8 9.7 0.15 2.26 2.26 95 1010.1
20260502192003 12 3 3.2 4.8 0.18 2.24 2.24 95 1010.1
20260502191003 12 26 1.6 3.2 0.28 2.21 2.21 95 1010.0
20260502190218 12 360 1.6 4.8 0.51 2.21 2.21 94 1010.1
20260502185003 12 5 3.2 6.4 0.79 2.16 2.16 94 1010.0
20260502184003 12 36 3.2 11.3 0.99 2.13 2.13 94 1010.0
20260502182003 12 145 0.0 1.6 1.09 2.06 2.06 94 1010.2
20260502181003 12 147 0.0 1.6 1.07 1.93 1.93 94 1010.4
20260502164216 13 91 3.2 9.7 0.43 0.76 0.76 89 1011.0
20260502163003 13 100 1.6 6.4 0.51 0.71 0.71 88 1011.2
20260502162003 13 102 0.0 1.6 0.53 0.64 0.64 87 1011.7
20260502161003 14 103 0.0 1.6 0.51 0.53 0.53 87 1011.5
20260502152003 15 102 0.0 3.2 0.08 0.10 0.10 72 1012.0
20260502151003 16 102 1.6 3.2 0.00 0.05 0.03 69 1011.8
20260502150221 16 102 1.6 4.8 0.00 0.05 0.03 66 1011.9
20260502123003 16 105 4.8 9.7 0.00 0.08 0.03 66 1014.1
20260502122003 16 107 3.2 6.4 0.00 0.08 0.03 64 1014.0
20260502121003 16 106 4.8 6.4 0.00 0.08 0.03 66 1014.3
20260502115003 16 108 3.2 6.4 0.00 0.08 0.03 66 1014.5
20260502114003 16 104 4.8 9.7 0.00 0.08 0.03 66 1014.5
20260502113003 16 110 3.2 6.4 0.00 0.08 0.03 67 1014.8
20260502112003 16 110 3.2 9.7 0.00 0.08 0.03 67 1014.9
20260502111003 16 105 3.2 6.4 0.00 0.08 0.03 67 1015.2
20260502110003 16 105 3.2 6.4 0.00 0.08 0.03 67 1015.1
20260502105003 16 109 3.2 6.4 0.00 0.08 0.03 67 1015.7
20260502104003 15 111 3.2 6.4 0.00 0.08 0.03 70 1015.7
20260502103003 15 115 3.2 4.8 0.00 0.08 0.03 69 1015.6
20260502102003 16 142 1.6 3.2 0.00 0.08 0.03 65 1015.5
20260502101218 15 107 3.2 4.8 0.00 0.08 0.03 68 1015.5
20260502091219 12 112 4.8 9.7 0.00 0.08 0.03 81 1016.2
20260502090220 13 113 4.8 6.4 0.00 0.08 0.03 80 1016.2
20260502071003 10 0 0.0 0.0 0.00 0.08 0.03 97 1016.9
20260502070003 9 274 0.0 1.6 0.00 0.08 0.03 96 1017.0
20260502065003 9 274 0.0 1.6 0.00 0.08 0.03 97 1016.9
20260502064003 8 274 1.6 4.8 0.00 0.08 0.03 96 1016.9
20260502063219 8 273 1.6 4.8 0.00 0.08 0.03 96 1016.8
20260502062003 8 272 1.6 4.8 0.00 0.08 0.03 96 1016.9
20260502061003 8 271 1.6 3.2 0.00 0.08 0.03 96 1017.1
20260502060003 8 270 1.6 3.2 0.00 0.08 0.03 96 1017.2
20260502055003 8 270 1.6 3.2 0.00 0.08 0.03 96 1017.2
20260502054003 7 270 0.0 1.6 0.00 0.08 0.03 96 1017.0
20260502053003 7 270 0.0 1.6 0.03 0.08 0.03 96 1017.1
20260502052003 7 270 1.6 3.2 0.03 0.08 0.03 96 1017.0
20260502051003 7 270 1.6 3.2 0.03 0.08 0.03 96 1016.8
20260502050003 6 269 0.0 1.6 0.03 0.08 0.03 95 1016.8
20260502045003 6 269 0.0 1.6 0.03 0.08 0.03 95 1016.9
20260502044003 7 269 0.0 1.6 0.03 0.08 0.03 95 1017.1
20260502043003 7 270 1.6 3.2 0.00 0.05 0.00 95 1016.7
20260502042003 7 269 1.6 3.2 0.00 0.05 0.00 95 1016.8
20260502041003 7 269 0.0 3.2 0.00 0.05 0.00 95 1016.8
20260502040003 7 269 0.0 1.6 0.00 0.05 0.00 95 1017.0
20260502035219 7 269 0.0 1.6 0.00 0.05 0.00 95 1017.1
20260502034003 7 269 0.0 3.2 0.00 0.05 0.00 95 1017.3
20260502033221 7 269 0.0 1.6 0.00 0.05 0.00 95 1017.2
20260502032216 7 269 1.6 3.2 0.00 0.05 0.00 94 1017.2
20260502031003 7 269 1.6 3.2 0.00 0.05 0.00 94 1017.1
20260502030003 7 269 0.0 3.2 0.00 0.05 0.00 94 1017.5
20260502025003 7 269 0.0 1.6 0.00 0.05 0.00 94 1017.2
20260502024220 7 269 0.0 1.6 0.00 0.05 0.00 94 1017.7
20260502023003 8 269 0.0 1.6 0.00 0.05 0.00 94 1017.3
20260502022003 7 269 0.0 1.6 0.00 0.05 0.00 94 1017.4
20260502021003 7 0 0.0 0.0 0.00 0.05 0.00 94 1017.5
20260502020003 8 269 1.6 3.2 0.00 0.05 0.00 93 1017.5
20260502015003 8 269 1.6 3.2 0.00 0.05 0.00 93 1017.5
20260502014221 8 269 1.6 3.2 0.00 0.05 0.00 93 1017.7
20260502013217 8 269 1.6 3.2 0.00 0.05 0.00 93 1017.6
20260502012003 8 269 0.0 3.2 0.00 0.05 0.00 93 1017.9
20260502011219 8 269 0.0 1.6 0.00 0.05 0.00 92 1017.8